period_start,C,m1,H,J0,J1,J2,J3,J4,J5,JA,JB,JC,JD,JJ,JK,JN,#
2015-10-18 00:02:25,0.10,1.28,0.00,20.97,26.62,30.29,14.73,48.00,1016.62,2039.00,3031.50,2931.43,3190.67,599.93,600.08,39.03,0000 0000 0000 0000 000000
2015-10-18 00:07:26,0.04,1.28,0.00,20.97,26.63,30.32,14.80,48.02,1016.62,2038.98,3030.24,2930.58,3189.99,599.91,600.07,39.08,0000 0000 0000 0000 000000
2015-10-18 00:12:27,0.04,1.29,0.00,20.97,26.64,30.32,14.74,48.07,1016.62,2038.99,3029.29,2929.99,3189.23,600.05,600.18,39.13,0000 0000 0000 0000 000000
2015-10-18 00:17:29,0.04,1.29,0.00,20.98,26.65,30.28,14.66,48.14,1016.60,2038.99,3028.59,2929.33,3188.85,599.45,599.61,39.18,0000 0000 0000 0000 000000
2015-10-18 00:22:30,0.02,1.29,0.00,20.99,26.65,30.30,14.75,48.17,1016.57,2038.99,3028.02,2929.01,3188.17,599.94,600.02,39.23,0000 0000 0000 0000 000000
2015-10-18 00:27:31,0.00,1.29,0.00,20.97,26.65,30.32,14.74,48.08,1016.59,2038.98,3027.93,2928.98,3188.01,600.00,600.15,39.28,0000 0000 0000 0000 000000
2015-10-18 00:32:32,0.02,1.29,0.00,20.98,26.65,30.37,14.76,48.08,1016.57,2038.98,3027.21,2928.83,3187.98,599.99,600.11,39.33,0000 0000 0000 0000 000000
2015-10-18 00:37:34,0.02,1.29,0.00,20.99,26.65,30.33,14.77,48.16,1016.59,2038.99,3027.00,2928.32,3187.85,600.33,600.29,39.38,0000 0000 0000 0000 000000
2015-10-18 00:42:35,0.01,1.29,0.00,21.00,26.65,30.36,14.73,48.13,1016.53,2038.99,3026.95,2928.04,3187.27,599.92,599.95,39.43,0000 0000 0000 0000 000000
2015-10-18 00:47:36,0.01,1.29,0.00,20.98,26.65,30.36,14.75,48.23,1016.53,2038.98,3026.34,2928.00,3187.01,600.27,600.26,39.48,0000 0000 0000 0000 000000
2015-10-18 00:52:38,0.00,1.29,0.00,20.99,26.66,30.38,14.71,48.23,1016.53,2038.96,3026.01,2928.00,3187.00,599.88,599.84,39.53,0000 0000 0000 0000 000000
2015-10-18 00:57:39,0.00,1.29,0.00,21.01,26.67,30.40,14.67,48.17,1016.51,2038.99,3026.00,2927.98,3186.96,599.97,600.08,39.58,0000 0000 0000 0000 000000
2015-10-18 01:02:40,0.08,1.30,0.00,21.01,26.67,30.39,14.81,48.13,1016.48,2038.98,3025.06,2926.99,3185.92,600.38,600.35,39.63,0000 0000 0000 0000 000000
2015-10-18 01:07:41,0.12,1.30,0.00,20.99,26.67,30.32,14.82,48.16,1016.50,2038.98,3023.13,2925.25,3184.20,600.27,600.33,39.68,0000 0000 0000 0000 000000
2015-10-18 01:12:43,0.16,1.31,0.00,21.00,26.67,30.40,14.77,48.27,1016.57,2038.98,3020.36,2922.84,3181.68,600.00,600.12,39.73,0000 0000 0000 0000 000000
2015-10-18 01:17:45,0.12,1.32,0.00,21.03,26.67,30.38,14.78,48.15,1016.59,2038.99,3018.26,2920.90,3179.70,600.12,600.10,39.78,0000 0000 0000 0000 000000
2015-10-18 01:22:46,0.14,1.32,0.00,21.03,26.67,30.38,14.73,48.20,1016.61,2038.97,3015.90,2918.96,3177.63,599.69,599.79,39.83,0000 0000 0000 0000 000000
2015-10-18 01:27:47,0.19,1.33,0.00,21.02,26.67,30.40,14.72,48.08,1016.60,2038.96,3012.44,2916.45,3174.98,599.59,599.91,39.89,0000 0000 0000 0000 000000
2015-10-18 01:32:48,0.18,1.34,0.00,21.03,26.68,30.40,14.70,48.08,1016.55,2038.94,3008.76,2913.83,3172.29,599.80,599.80,39.94,0000 0000 0000 0000 000000
2015-10-18 01:37:50,0.19,1.35,0.00,21.05,26.70,30.36,14.72,48.06,1016.57,2038.96,3005.27,2911.29,3169.62,599.69,599.65,39.99,0000 0000 0000 0000 000000
2015-10-18 01:42:51,0.14,1.36,0.00,21.04,26.70,30.37,14.73,48.17,1016.57,2038.97,3001.99,2908.94,3167.13,600.15,600.08,40.04,0000 0000 0000 0000 000000
2015-10-18 01:47:53,0.05,1.37,0.00,21.04,26.70,30.38,14.76,48.08,1016.47,2038.96,3000.59,2908.03,3166.07,600.00,599.93,40.09,0000 0000 0000 0000 000000
2015-10-18 01:52:54,0.03,1.37,0.00,21.06,26.70,30.45,14.72,48.10,1016.37,2038.97,2999.98,2907.58,3165.67,600.08,599.99,40.14,0000 0000 0000 0000 000000
2015-10-18 01:57:55,0.02,1.37,0.00,21.07,26.71,30.37,14.75,48.11,1016.50,2038.92,2999.23,2907.02,3165.03,600.24,600.06,40.19,0000 0000 0000 0000 000000
2015-10-18 02:02:56,0.01,1.37,0.00,21.04,26.72,30.40,14.71,48.17,1016.55,2038.95,2999.02,2907.00,3165.00,599.90,599.79,40.24,0000 0000 0000 0000 000000
2015-10-18 02:07:58,0.00,1.37,0.00,21.06,26.72,30.42,14.75,48.09,1016.55,2038.91,2999.00,2907.00,3165.00,600.21,600.14,40.29,0000 0000 0000 0000 000000
2015-10-18 02:12:59,0.04,1.37,0.00,21.09,26.72,30.42,14.72,48.20,1016.56,2038.89,2998.64,2906.65,3164.62,599.99,599.78,40.34,0000 0000 0000 0000 000000
2015-10-18 02:18:00,0.02,1.37,0.00,21.09,26.73,30.39,14.69,48.16,1016.42,2038.88,2998.02,2906.02,3164.01,599.86,599.64,40.39,0000 0000 0000 0000 000000
2015-10-18 02:23:01,0.00,1.37,0.00,21.08,26.75,30.44,14.67,48.17,1016.52,2038.89,2998.00,2906.00,3164.00,599.96,599.85,40.44,0000 0000 0000 0000 000000
2015-10-18 02:28:02,-0.01,1.37,0.00,21.09,26.75,30.43,14.72,48.19,1016.53,2038.87,2997.99,2905.98,3163.98,599.80,599.63,40.49,0000 0000 0000 0000 000000
2015-10-18 02:33:04,0.00,1.37,0.00,21.12,26.75,30.37,14.73,48.13,1016.31,2038.77,2997.97,2905.98,3163.93,600.00,599.66,40.54,0000 0000 0000 0000 000000
2015-10-18 02:38:05,-0.02,1.37,0.00,21.10,26.75,30.39,14.75,48.03,1016.36,2038.60,2997.96,2905.92,3163.64,600.05,599.80,40.59,0000 0000 0000 0000 000000
2015-10-18 02:43:06,0.03,1.37,0.00,21.11,26.77,30.39,14.70,48.03,1016.28,2038.65,2997.82,2905.83,3163.31,599.81,599.51,40.64,0000 0000 0000 0000 000000
2015-10-18 02:48:08,-0.01,1.37,0.00,21.14,26.77,30.40,14.70,47.96,1016.21,2038.56,2997.71,2905.69,3163.14,599.97,599.47,40.69,0000 0000 0000 0000 000000
2015-10-18 02:53:09,-0.00,1.37,0.00,21.14,26.77,30.38,14.77,48.04,1016.37,2038.24,2997.40,2905.36,3163.04,600.16,599.91,40.74,0000 0000 0000 0000 000000
2015-10-18 02:58:10,0.01,1.37,0.00,21.15,26.78,30.39,14.76,47.92,1016.48,2038.18,2997.11,2905.15,3163.01,600.23,599.86,40.79,0000 0000 0000 0000 000000
2015-10-18 03:03:12,-0.00,1.37,0.00,21.17,26.80,30.41,14.72,48.02,1016.50,2038.19,2997.02,2905.03,3163.00,600.16,599.82,40.85,0000 0000 0000 0000 000000
2015-10-18 03:08:13,-0.00,1.37,0.00,21.20,26.80,30.38,14.72,48.07,1016.59,2038.27,2997.00,2905.02,3163.00,600.20,599.82,40.90,0000 0000 0000 0000 000000
2015-10-18 03:13:14,0.01,1.37,0.00,21.22,26.81,30.39,14.70,48.01,1016.62,2038.11,2996.76,2904.99,3162.73,599.82,599.42,40.95,0000 0000 0000 0000 000000
2015-10-18 03:18:16,0.03,1.37,0.00,21.22,26.82,30.31,14.77,48.08,1016.62,2038.04,2996.00,2904.33,3162.03,599.99,599.52,41.00,0000 0000 0000 0000 000000
2015-10-18 03:23:17,0.01,1.38,0.00,21.50,26.83,30.11,14.69,47.98,1016.61,2038.01,2995.33,2904.01,3161.84,600.23,599.40,41.05,0000 0000 0000 0000 000000
2015-10-18 03:28:18,0.01,1.38,0.00,21.69,26.85,30.04,14.65,47.88,1016.62,2038.01,2995.00,2903.97,3161.12,599.84,598.64,41.10,0000 0000 0000 0000 000000
2015-10-18 03:33:19,0.04,1.38,0.00,21.55,26.87,30.09,14.64,47.82,1016.63,2038.00,2994.44,2903.32,3160.99,599.87,598.87,41.15,0000 0000 0000 0000 000000
2015-10-18 03:38:21,0.01,1.38,0.00,21.49,26.88,30.15,14.64,47.89,1016.62,2038.00,2994.01,2903.02,3160.86,599.72,598.70,41.20,0000 0000 0000 0000 000000
2015-10-18 03:43:22,0.01,1.38,0.00,21.49,26.90,30.18,14.66,47.87,1016.63,2038.00,2993.99,2903.00,3160.37,600.04,599.24,41.25,0000 0000 0000 0000 000000
2015-10-18 03:48:23,0.00,1.38,0.00,21.46,26.90,30.22,14.60,47.93,1016.63,2038.00,2993.94,2903.00,3160.05,599.49,598.52,41.30,0000 0000 0000 0000 000000
2015-10-18 03:53:24,0.00,1.38,0.00,21.43,26.92,30.26,14.69,47.97,1016.64,2037.98,2993.58,2902.99,3160.01,599.90,598.93,41.35,0000 0000 0000 0000 000000
2015-10-18 03:58:26,0.01,1.38,0.00,21.46,26.93,30.32,14.76,48.15,1016.65,2037.99,2993.17,2902.93,3160.00,600.09,599.31,41.40,0000 0000 0000 0000 000000
2015-10-18 04:03:27,0.01,1.38,0.00,21.49,26.95,30.31,14.59,48.07,1016.66,2037.98,2993.00,2902.75,3159.99,599.42,598.62,41.45,0000 0000 0000 0000 000000
2015-10-18 04:08:28,0.01,1.38,0.00,21.58,26.95,30.24,14.64,47.98,1016.64,2037.95,2993.00,2902.31,3159.97,599.75,598.61,41.50,0000 0000 0000 0000 000000
2015-10-18 04:13:30,0.00,1.38,0.00,21.96,26.98,30.10,14.53,47.77,1016.67,2037.90,2992.99,2902.03,3159.55,600.01,598.17,41.55,0000 0000 0000 0000 000000
2015-10-18 04:18:31,-0.01,1.38,0.00,22.00,27.01,30.14,14.56,47.72,1016.64,2037.69,2992.96,2902.01,3159.12,599.95,598.16,41.60,0000 0000 0000 0000 000000
2015-10-18 04:23:32,-0.03,1.38,0.00,21.87,27.02,30.17,14.68,47.76,1016.62,2037.34,2992.75,2902.00,3159.02,600.32,598.66,41.65,0000 0000 0000 0000 000000
2015-10-18 04:28:34,-0.01,1.38,0.00,21.79,27.05,30.25,14.59,47.88,1016.72,2037.09,2992.52,2901.98,3159.00,599.50,598.06,41.70,0000 0000 0000 0000 000000
2015-10-18 04:33:35,0.00,1.38,0.00,21.77,27.07,30.28,14.67,47.95,1017.06,2037.02,2992.27,2901.94,3158.92,600.22,598.99,41.76,0000 0000 0000 0000 000000
2015-10-18 04:38:37,0.02,1.38,0.00,21.92,27.09,30.25,14.64,47.86,1017.09,2037.00,2992.05,2901.63,3158.58,600.32,598.75,41.81,0000 0000 0000 0000 000000
2015-10-18 04:43:38,0.01,1.38,0.00,22.20,27.12,30.16,14.66,47.89,1017.09,2037.00,2992.01,2901.15,3158.09,600.10,597.94,41.86,0000 0000 0000 0000 000000
2015-10-18 04:48:39,0.00,1.38,0.00,22.16,27.15,30.21,14.57,47.86,1017.10,2036.99,2992.01,2901.02,3158.01,599.90,597.86,41.91,0000 0000 0000 0000 000000
2015-10-18 04:53:41,0.00,1.38,0.00,22.06,27.17,30.29,14.63,47.79,1017.11,2036.97,2991.99,2901.00,3157.99,599.89,598.15,41.96,0000 0000 0000 0000 000000
2015-10-18 04:58:42,0.01,1.38,0.00,21.99,27.20,30.29,14.62,47.88,1017.13,2036.92,2991.73,2900.98,3157.76,599.81,598.33,42.01,0000 0000 0000 0000 000000
2015-10-18 05:03:44,-0.00,1.38,0.00,22.07,27.22,30.28,14.55,47.92,1017.20,2036.64,2991.09,2900.66,3157.10,599.93,598.08,42.06,0000 0000 0000 0000 000000
2015-10-18 05:08:45,-0.02,1.38,0.00,22.22,27.25,30.28,14.58,47.84,1017.20,2036.17,2991.02,2900.11,3157.01,600.04,598.00,42.11,0000 0000 0000 0000 000000
2015-10-18 05:13:46,-0.00,1.38,0.00,22.21,27.27,30.30,14.61,47.92,1017.15,2036.04,2991.02,2900.00,3156.98,600.04,597.94,42.16,0000 0000 0000 0000 000000
2015-10-18 05:18:47,0.01,1.38,0.00,22.15,27.30,30.33,14.71,47.97,1017.20,2036.01,2990.89,2899.99,3156.67,600.40,598.48,42.21,0000 0000 0000 0000 000000
2015-10-18 05:23:48,0.03,1.38,0.00,22.14,27.32,30.36,14.68,47.92,1017.28,2036.00,2990.07,2899.75,3156.04,599.81,598.06,42.26,0000 0000 0000 0000 000000
2015-10-18 05:28:49,0.01,1.38,0.00,22.15,27.35,30.37,14.62,47.80,1017.38,2036.00,2989.99,2899.16,3156.00,600.01,598.14,42.31,0000 0000 0000 0000 000000
2015-10-18 05:33:51,0.01,1.38,0.00,22.13,27.36,30.40,14.67,47.76,1017.48,2036.00,2989.61,2899.01,3155.96,600.04,598.42,42.36,0000 0000 0000 0000 000000
2015-10-18 05:38:52,0.01,1.39,0.00,22.08,27.37,30.43,14.60,47.83,1017.48,2035.98,2989.06,2899.00,3155.58,600.27,598.76,42.41,0000 0000 0000 0000 000000
2015-10-18 05:43:53,0.00,1.39,0.00,22.07,27.40,30.44,14.66,47.83,1017.47,2035.97,2989.00,2898.98,3155.05,599.88,598.23,42.46,0000 0000 0000 0000 000000
2015-10-18 05:48:54,0.01,1.39,0.00,22.04,27.40,30.45,14.70,47.92,1017.48,2035.82,2988.63,2898.41,3154.99,600.13,598.59,42.51,0000 0000 0000 0000 000000
2015-10-18 05:53:55,0.02,1.39,0.00,21.99,27.41,30.47,14.64,47.93,1017.41,2035.84,2988.03,2898.01,3154.79,599.90,598.51,42.56,0000 0000 0000 0000 000000
2015-10-18 05:58:57,0.02,1.39,0.00,21.98,27.42,30.49,14.71,48.03,1017.44,2035.55,2987.40,2897.82,3153.99,600.28,598.91,42.62,0000 0000 0000 0000 000000
2015-10-18 06:03:58,0.12,1.39,0.00,21.98,27.42,30.49,14.63,47.91,1017.32,2035.34,2984.92,2896.10,3152.31,600.03,598.53,42.67,0000 0000 0000 0000 000000
2015-10-18 06:08:59,0.10,1.40,0.00,21.93,27.42,30.50,14.63,47.93,1017.24,2035.12,2982.26,2894.37,3150.46,599.87,598.41,42.72,0000 0000 0000 0000 000000
2015-10-18 06:14:00,0.08,1.40,0.00,21.90,27.42,30.52,14.70,47.93,1017.34,2035.07,2980.19,2893.05,3149.07,600.10,598.78,42.77,0000 0000 0000 0000 000000
2015-10-18 06:19:01,0.05,1.41,0.00,21.92,27.43,30.54,14.64,47.81,1017.49,2035.03,2978.91,2892.12,3148.11,599.85,598.60,42.82,0000 0000 0000 0000 000000
2015-10-18 06:24:03,0.02,1.41,0.00,21.90,27.44,30.55,14.70,48.02,1017.54,2035.01,2978.08,2891.96,3147.81,599.80,598.63,42.87,0000 0000 0000 0000 000000
2015-10-18 06:29:04,0.05,1.41,0.00,21.88,27.45,30.55,14.69,48.03,1017.58,2035.00,2977.28,2891.15,3146.96,599.98,598.75,42.92,0000 0000 0000 0000 000000
2015-10-18 06:34:05,0.06,1.41,0.00,21.94,27.45,30.54,14.66,47.83,1017.57,2035.00,2976.06,2890.17,3146.07,600.11,598.86,42.97,0000 0000 0000 0000 000000
2015-10-18 06:39:07,0.02,1.42,0.00,21.93,27.45,30.56,14.64,47.84,1017.58,2035.01,2975.22,2889.99,3145.83,599.66,598.45,43.02,0000 0000 0000 0000 000000
2015-10-18 06:44:08,0.05,1.42,0.00,21.89,27.45,30.57,14.67,47.86,1017.59,2035.02,2974.34,2889.38,3145.06,599.88,598.86,43.07,0000 0000 0000 0000 000000
2015-10-18 06:49:10,0.06,1.42,0.00,21.89,27.45,30.58,14.72,47.95,1017.59,2035.01,2973.09,2888.60,3144.18,599.96,598.81,43.12,0000 0000 0000 0000 000000
2015-10-18 06:54:11,0.04,1.42,0.00,21.90,27.45,30.57,14.70,47.94,1017.59,2035.00,2972.09,2887.98,3143.57,600.17,598.89,43.17,0000 0000 0000 0000 000000
2015-10-18 06:59:12,0.06,1.43,0.00,21.91,27.45,30.58,14.72,47.90,1017.59,2035.00,2970.89,2887.14,3142.67,600.09,598.94,43.22,0000 0000 0000 0000 000000
2015-10-18 07:04:13,0.07,1.43,0.00,21.88,27.45,30.58,14.68,47.89,1017.60,2035.00,2969.65,2886.30,3141.71,599.80,598.79,43.27,0000 0000 0000 0000 000000
2015-10-18 07:09:15,0.14,1.43,0.00,21.93,27.46,30.57,14.73,47.79,1017.60,2035.00,2967.15,2884.54,3139.87,600.13,598.90,43.32,0000 0000 0000 0000 000000
2015-10-18 07:14:16,0.12,1.44,0.00,21.94,27.47,30.57,14.70,47.84,1017.60,2035.00,2964.60,2882.72,3137.99,600.06,598.81,43.37,0000 0000 0000 0000 000000
2015-10-18 07:19:17,0.07,1.45,0.00,21.88,27.47,30.59,14.63,47.85,1017.62,2035.00,2962.99,2881.69,3136.80,600.03,598.73,43.42,0000 0000 0000 0000 000000
2015-10-18 07:24:18,0.05,1.45,0.00,21.88,27.47,30.60,14.57,47.89,1017.64,2035.00,2961.77,2880.85,3135.86,599.79,598.65,43.47,0000 0000 0000 0000 000000
2015-10-18 07:29:19,0.05,1.45,0.00,21.89,27.47,30.59,14.61,47.72,1017.74,2035.00,2960.69,2880.05,3135.04,599.90,598.79,43.52,0000 0000 0000 0000 000000
2015-10-18 07:34:21,0.05,1.46,0.00,21.86,27.47,30.59,14.62,47.85,1017.85,2034.99,2959.68,2879.33,3134.46,599.77,598.84,43.58,0000 0000 0000 0000 000000
2015-10-18 07:39:22,0.02,1.46,0.00,21.84,27.47,30.59,14.64,47.89,1017.94,2034.98,2958.75,2878.97,3133.95,599.81,598.95,43.63,0000 0000 0000 0000 000000
2015-10-18 07:44:23,0.06,1.46,0.00,21.84,27.47,30.59,14.67,47.79,1017.97,2034.98,2957.62,2878.18,3133.11,600.07,599.29,43.68,0000 0000 0000 0000 000000
2015-10-18 07:49:25,0.04,1.46,0.00,21.80,27.47,30.60,14.62,47.77,1017.96,2034.98,2956.81,2877.77,3132.49,599.85,599.11,43.73,0000 0000 0000 0000 000000
2015-10-18 07:54:26,0.03,1.47,0.00,21.79,27.47,30.60,14.70,47.73,1017.98,2034.99,2955.99,2877.05,3131.98,600.03,599.24,43.78,0000 0000 0000 0000 000000
2015-10-18 07:59:27,0.03,1.47,0.00,21.84,27.48,30.61,14.74,47.92,1017.98,2034.98,2955.18,2876.90,3131.37,600.11,599.28,43.83,0000 0000 0000 0000 000000
2015-10-18 08:04:28,0.02,1.47,0.00,21.87,27.49,30.58,14.71,47.87,1017.82,2034.99,2954.95,2876.20,3131.00,600.03,599.14,43.88,0000 0000 0000 0000 000000
2015-10-18 08:09:30,0.03,1.47,0.00,21.82,27.49,30.59,14.66,47.91,1017.63,2034.98,2954.12,2875.89,3130.28,600.01,599.08,43.93,0000 0000 0000 0000 000000
2015-10-18 08:14:31,0.02,1.47,0.00,21.81,27.49,30.59,14.70,47.94,1017.65,2034.99,2953.96,2875.19,3129.99,600.07,599.11,43.98,0000 0000 0000 0000 000000
2015-10-18 08:19:33,0.01,1.47,0.00,21.83,27.49,30.61,14.65,47.92,1017.72,2034.99,2953.43,2875.00,3129.82,599.99,599.05,44.03,0000 0000 0000 0000 000000
2015-10-18 08:24:34,0.01,1.47,0.00,21.80,27.48,30.60,14.71,47.98,1017.82,2034.99,2953.01,2874.89,3129.10,600.01,599.35,44.08,0000 0000 0000 0000 000000
2015-10-18 08:29:35,0.02,1.48,0.00,21.79,27.47,30.60,14.73,47.92,1017.95,2034.99,2952.95,2874.28,3129.00,599.96,599.22,44.13,0000 0000 0000 0000 000000
2015-10-18 08:34:37,0.02,1.48,0.00,21.78,27.47,30.60,14.55,47.85,1017.95,2034.99,2952.31,2874.01,3128.88,599.50,598.76,44.18,0000 0000 0000 0000 000000
2015-10-18 08:39:38,0.01,1.48,0.00,21.77,27.47,30.61,14.75,47.81,1017.93,2034.99,2952.01,2874.00,3128.38,600.22,599.37,44.23,0000 0000 0000 0000 000000
2015-10-18 08:44:39,0.00,1.48,0.00,21.73,27.47,30.61,14.69,47.84,1018.05,2034.99,2952.00,2873.97,3128.02,600.39,599.79,44.28,0000 0000 0000 0000 000000
2015-10-18 08:49:41,0.03,1.48,0.00,21.72,27.47,30.64,14.72,47.73,1018.08,2034.99,2951.64,2873.39,3127.97,600.06,599.56,44.33,0000 0000 0000 0000 000000
2015-10-18 08:54:42,0.02,1.48,0.00,21.72,27.46,30.63,14.76,47.72,1018.08,2034.99,2950.96,2873.00,3127.15,600.05,599.47,44.38,0000 0000 0000 0000 000000
2015-10-18 08:59:43,0.02,1.48,0.00,21.68,27.45,30.63,14.73,47.83,1018.08,2034.99,2950.17,2872.77,3126.95,600.08,599.72,44.44,0000 0000 0000 0000 000000
2015-10-18 09:04:44,0.15,1.49,0.00,21.68,27.45,30.62,14.76,47.76,1018.08,2034.99,2948.02,2871.19,3125.45,600.11,599.68,44.49,0000 0000 0000 0000 000000
2015-10-18 09:09:46,0.56,1.50,0.00,21.73,27.45,30.61,14.62,47.90,1018.08,2035.00,2939.21,2865.43,3119.38,599.92,599.38,44.54,0000 0000 0000 0000 000000
2015-10-18 09:14:47,0.46,1.54,0.00,21.71,27.45,30.60,14.64,47.90,1018.08,2035.00,2928.21,2858.20,3111.83,599.86,599.34,44.59,0000 0000 0000 0000 000000
2015-10-18 09:19:48,0.21,1.55,0.00,21.67,27.45,30.58,14.62,47.97,1018.08,2035.00,2923.51,2855.03,3108.49,599.68,599.37,44.64,0000 0000 0000 0000 000000
2015-10-18 09:24:49,0.10,1.56,0.00,21.68,27.44,30.59,14.69,48.04,1018.08,2035.00,2921.21,2853.49,3106.82,600.04,599.44,44.69,0000 0000 0000 0000 000000
2015-10-18 09:29:50,0.05,1.56,0.00,21.67,27.42,30.60,14.77,48.07,1018.08,2035.00,2919.88,2852.45,3105.95,600.38,599.93,44.74,0000 0000 0000 0000 000000
2015-10-18 09:34:52,0.03,1.56,0.00,21.64,27.42,30.61,14.69,48.02,1018.06,2035.00,2919.14,2852.03,3105.35,599.91,599.55,44.79,0000 0000 0000 0000 000000
2015-10-18 09:39:53,0.00,1.56,0.00,21.63,27.42,30.60,14.69,48.00,1018.07,2035.00,2919.00,2852.01,3105.10,600.15,599.72,44.84,0000 0000 0000 0000 000000
2015-10-18 09:44:54,0.00,1.56,0.00,21.65,27.42,30.59,14.70,48.02,1018.04,2035.00,2919.00,2852.00,3105.07,599.95,599.55,44.89,0000 0000 0000 0000 000000
2015-10-18 09:49:56,0.00,1.56,0.00,21.66,27.40,30.60,14.64,47.93,1018.02,2035.01,2919.00,2852.02,3105.12,600.14,599.64,44.94,0000 0000 0000 0000 000000
2015-10-18 09:54:57,0.00,1.56,0.00,21.62,27.40,30.59,14.69,47.97,1017.99,2035.00,2918.99,2852.01,3105.04,599.78,599.45,44.99,0000 0000 0000 0000 000000
2015-10-18 09:59:58,0.00,1.56,0.00,21.62,27.40,30.60,14.75,47.95,1017.98,2035.00,2918.98,2852.01,3105.03,600.29,599.95,45.04,0000 0000 0000 0000 000000
2015-10-18 10:05:00,0.00,1.56,0.00,21.62,27.39,30.60,14.69,48.03,1017.89,2035.00,2918.94,2852.00,3105.01,600.09,599.66,45.09,0000 0000 0000 0000 000000
2015-10-18 10:10:01,0.00,1.56,0.00,21.60,27.38,30.61,14.69,47.93,1017.81,2035.01,2918.82,2852.00,3105.00,599.86,599.50,45.14,0000 0000 0000 0000 000000
2015-10-18 10:15:02,0.01,1.56,0.00,21.59,27.37,30.59,14.69,47.77,1017.83,2035.01,2918.53,2852.00,3105.00,599.82,599.52,45.19,0000 0000 0000 0000 000000
2015-10-18 10:20:03,0.01,1.56,0.00,21.57,27.37,30.58,14.68,47.74,1017.97,2035.03,2918.06,2851.99,3105.00,600.24,599.91,45.24,0000 0000 0000 0000 000000
2015-10-18 10:25:05,0.00,1.56,0.00,21.56,27.37,30.57,14.64,47.83,1017.99,2035.02,2918.00,2851.96,3104.95,600.07,599.78,45.29,0000 0000 0000 0000 000000
2015-10-18 10:30:06,0.00,1.56,0.00,21.55,27.37,30.57,14.66,47.75,1017.96,2035.03,2917.96,2851.88,3104.85,599.95,599.70,45.35,0000 0000 0000 0000 000000
2015-10-18 10:35:07,0.04,1.57,0.00,21.57,27.35,30.56,14.78,47.89,1018.08,2035.12,2917.42,2851.63,3104.56,600.31,600.01,45.40,0000 0000 0000 0000 000000
2015-10-18 10:40:08,0.02,1.57,0.00,21.55,27.35,30.58,14.73,47.88,1018.08,2035.17,2917.01,2851.05,3104.03,600.04,599.70,45.45,0000 0000 0000 0000 000000
2015-10-18 10:45:09,-0.00,1.57,0.00,21.53,27.35,30.58,14.73,47.83,1018.09,2035.09,2916.98,2851.00,3104.00,599.96,599.95,45.50,0000 0000 0000 0000 000000
2015-10-18 10:50:10,0.00,1.57,0.00,21.52,27.35,30.58,14.71,47.93,1018.09,2035.14,2916.97,2851.00,3104.00,600.10,599.94,45.55,0000 0000 0000 0000 000000
2015-10-18 10:55:11,0.00,1.57,0.00,21.54,27.35,30.58,14.70,47.95,1018.11,2035.13,2916.84,2851.00,3103.99,600.04,599.84,45.60,0000 0000 0000 0000 000000
2015-10-18 11:00:13,0.01,1.57,0.00,21.52,27.35,30.61,14.71,47.89,1018.12,2035.15,2916.18,2850.99,3103.92,600.10,599.97,45.65,0000 0000 0000 0000 000000
2015-10-18 11:05:14,0.04,1.57,0.00,21.47,27.35,30.67,14.73,47.98,1018.19,2035.20,2915.87,2850.75,3103.25,599.73,599.94,45.70,0000 0000 0000 0000 000000
2015-10-18 11:10:15,0.04,1.57,0.00,21.43,27.35,30.74,14.72,48.13,1018.22,2035.29,2915.07,2850.04,3102.99,599.79,599.96,45.75,0000 0000 0000 0000 000000
2015-10-18 11:15:17,0.04,1.57,0.00,21.44,27.34,30.79,14.74,48.06,1018.32,2035.52,2914.76,2849.92,3102.77,599.88,600.08,45.80,0000 0000 0000 0000 000000
2015-10-18 11:20:18,0.08,1.58,0.00,21.44,27.32,30.67,14.70,47.93,1018.28,2035.75,2913.25,2849.07,3101.92,600.23,600.44,45.85,0000 0000 0000 0000 000000
2015-10-18 11:25:19,-0.00,1.58,0.00,21.43,27.32,30.59,14.71,47.92,1018.27,2035.64,2913.00,2849.00,3101.69,599.90,600.00,45.90,0000 0000 0000 0000 000000
2015-10-18 11:30:20,0.01,1.58,0.00,21.52,27.32,30.51,14.74,47.92,1018.23,2035.79,2913.00,2849.00,3101.69,600.17,600.19,45.95,0000 0000 0000 0000 000000
2015-10-18 11:35:21,0.00,1.58,0.00,21.60,27.32,30.50,14.75,47.99,1018.32,2035.80,2913.00,2848.99,3101.34,600.05,599.85,46.00,0000 0000 0000 0000 000000
2015-10-18 11:40:23,0.00,1.58,0.00,21.58,27.32,30.49,14.69,47.98,1018.30,2035.78,2912.91,2848.96,3101.05,599.95,599.89,46.05,0000 0000 0000 0000 000000
2015-10-18 11:45:24,0.02,1.58,0.00,21.52,27.32,30.51,14.73,47.90,1018.17,2035.67,2912.23,2848.47,3101.00,599.76,599.76,46.10,0000 0000 0000 0000 000000
2015-10-18 11:50:25,0.04,1.58,0.00,21.49,27.32,30.54,14.70,47.86,1018.14,2035.57,2911.54,2848.02,3100.38,600.09,600.12,46.15,0000 0000 0000 0000 000000
2015-10-18 11:55:27,0.03,1.59,0.00,21.49,27.32,30.63,14.69,47.88,1018.11,2035.69,2910.87,2847.57,3099.99,599.79,599.78,46.20,0000 0000 0000 0000 000000
2015-10-18 12:00:28,0.06,1.59,0.00,21.43,27.32,30.70,14.75,48.02,1018.11,2035.89,2910.06,2847.02,3099.46,600.12,600.09,46.26,0000 0000 0000 0000 000000
2015-10-18 12:05:29,0.04,1.59,0.00,21.39,27.30,30.75,14.69,47.94,1018.09,2035.93,2909.24,2846.59,3098.99,600.18,600.36,46.31,0000 0000 0000 0000 000000
2015-10-18 12:10:31,0.04,1.59,0.00,21.42,27.30,30.63,14.70,47.98,1018.09,2035.95,2908.33,2846.01,3098.17,599.83,599.93,46.36,0000 0000 0000 0000 000000
2015-10-18 12:15:32,0.00,1.59,0.00,21.47,27.30,30.54,14.72,48.13,1018.09,2035.96,2908.00,2845.97,3098.00,599.69,599.66,46.41,0000 0000 0000 0000 000000
2015-10-18 12:20:33,0.01,1.59,0.00,21.58,27.30,30.47,14.76,47.91,1018.11,2035.98,2907.99,2845.82,3097.99,600.47,600.27,46.46,0000 0000 0000 0000 000000
2015-10-18 12:25:34,0.01,1.60,0.00,21.58,27.30,30.46,14.76,47.85,1018.12,2035.96,2907.87,2845.34,3097.88,600.06,599.84,46.51,0000 0000 0000 0000 000000
2015-10-18 12:30:36,0.03,1.60,0.00,21.57,27.31,30.45,14.69,47.89,1018.09,2035.92,2907.11,2845.04,3097.25,599.91,599.59,46.56,0000 0000 0000 0000 000000
2015-10-18 12:35:37,-0.00,1.60,0.00,21.54,27.32,30.46,14.71,47.85,1018.10,2035.90,2907.00,2845.00,3097.01,600.05,599.93,46.61,0000 0000 0000 0000 000000
2015-10-18 12:40:38,0.01,1.60,0.00,21.48,27.32,30.55,14.72,48.03,1018.09,2035.92,2906.80,2844.99,3097.00,600.07,600.10,46.66,0000 0000 0000 0000 000000
2015-10-18 12:45:39,0.02,1.60,0.00,21.44,27.31,30.64,14.71,48.02,1018.09,2035.92,2906.05,2844.80,3096.95,599.74,599.70,46.71,0000 0000 0000 0000 000000
2015-10-18 12:50:39,0.03,1.60,0.00,21.42,27.30,30.69,14.67,48.06,1018.09,2035.95,2905.91,2844.18,3096.42,599.89,600.01,46.76,0000 0000 0000 0000 000000
2015-10-18 12:55:41,0.02,1.60,0.00,21.40,27.30,30.81,14.74,48.02,1018.10,2035.96,2905.34,2844.02,3096.04,599.91,600.10,46.81,0000 0000 0000 0000 000000